{"data":{"norad_id":57331,"intl_designator":"2023-099D","name":"STARLINK-6234","alt_names":[],"object_type":"PAYLOAD","status":"ACTIVE","operator":null,"country":"US","launch_date":"2023-07-16","launch_site_code":"AFETR","launch_vehicle":null,"mission":null,"orbit_class":"UNKNOWN","rcs_meters":null,"size_class":null,"mass_kg":null,"dimensions":null,"purposes":["comms"],"wikipedia_slug":null,"has_3d_model":false,"image_url":null,"decayed_at":null,"tle_current":{"epoch":"2026-09-20T15:28:52.876416Z","epoch_age_seconds":113569,"freshness":"FRESH","line1":"1 57331U 23099D   26263.64505644  .00000275  00000+0  19542-4 0  9993","line2":"2 57331  43.0038 231.2933 0001755 272.0870  87.9781 15.27578239175895","mean_motion":15.27578239,"eccentricity":0.0001755,"inclination_deg":43.0038,"raan_deg":231.2933,"arg_perigee_deg":272.087,"mean_anomaly_deg":87.9781,"bstar":1.9542e-5,"rev_number":17589,"period_min":94.266857384841,"perigee_km":481.85023002696,"apogee_km":484.25850819751,"semimajor_km":6861.1913691122,"source":"CELESTRAK","updated_at":"2026-09-21T09:00:33.596354Z"}}}